Location: Ammerl�gen
(47.2167°N, 9.6000°E)
Time: 02:58:42
(UTC+00:00)

Cosmos 44 - Pass Details

Date: 21 April 2021
Orbit: 571 x 791 km, 65.1° (Epoch: 16 May)

Event Time Altitude Azimuth Distance (km) Brightness Sun altitude
Rises 19:19:04 0° 222° (SW) 3,105 6.8 -10.1°
Reaches altitude 10° 19:21:22 10° 224° (SW) 2,221 6.1 -10.4°
Maximum altitude 19:26:29 72° 309° (NW) 799 3.8 -11.1°
Drops below altitude 10° 19:31:53 10° 34° (NE) 2,341 6.0 -11.9°
Sets 19:34:22 0° 37° (NE) 3,287 6.7 -12.3°
